Location: Albany
(35.0000°S, 118.0000°E)
Time: 20:18:49
(UTC-05:00)

Atlas Centaur 2 - Visible Passes

Search period start: 27 November 2014 00:00
Search period end: 07 December 2014 00:00
Orbit: 460 x 1327 km, 30.4° (Epoch: 26 November)

Date Brightness Start Highest point End Pass type
(mag) Time Alt. Az. Time Alt. Az. Time Alt. Az.
28 Nov 3.5 13:50:26 12° NE 13:50:26 12° NE 13:51:08 10° NE visible
29 Nov 3.2 13:49:21 15° NE 13:49:21 15° NE 13:50:44 10° ENE visible
30 Nov 2.9 13:48:14 19° NE 13:48:14 19° NE 13:50:04 10° ENE visible
01 Dec 2.6 13:47:07 24° NE 13:47:07 24° NE 13:49:15 10° ENE visible
02 Dec 2.3 13:45:59 28° NE 13:45:59 28° NE 13:48:22 10° ENE visible
03 Dec 2.1 13:44:52 32° NE 13:44:52 32° NE 13:47:26 10° ENE visible
04 Dec 2.0 13:43:47 35° NE 13:43:47 35° NE 13:46:29 10° ENE visible
05 Dec 2.0 13:42:44 37° NNE 13:42:44 37° NNE 13:45:29 10° ENE visible
06 Dec 2.0 13:41:46 37° NNE 13:41:46 37° NNE 13:44:29 10° ENE visible
